Aérodrome :
LOGIN :

S'inscrire | Disclaimer

   EN    FR    IT 

 










Légende :    VFR   VFR Marginal   IFR   IFR Intensif   IFR Très Intensif
Visi : 
Plafond : 
>= 8 km
>= 3000ft
5 à 8 km
1000 à 3000 ft
1500m à 5 km
500 à 1000 ft
800 à 1500m
200 à 500 ft
< 800m
< 200 ft
Symboles :   Orages  Brouillard  Fortes neiges  Fortes précipitations  Vent > 20 kt
SIGMETs :   Divers  Orages  Givrage  Turbulence  Onde Orograph.  Cendres Volcan.







- Altitude de l'aérodrome : 5600 ft
- Code IATA : SMV


LSZS - Samedan

DERNIER METAR :
  • 210050Z AUTO 25001KT CAVOK 01/M02 Q1022

METARs EXPIRÉS :
  • 210020Z AUTO 00000KT CAVOK 01/M02 Q1022
  • 202350Z AUTO VRB01KT CAVOK 01/M02 Q1022
  • 202320Z AUTO 14001KT CAVOK 01/M02 Q1022
  • 202250Z AUTO VRB02KT CAVOK 02/M02 Q1022
  • 202220Z AUTO 00000KT CAVOK 03/M02 Q1023

Prévision TAF périmée.
ATIS : +41 81 834 93 24
Pas de NOTAMs connus pour ce terrain.



MET'MAP, la Météo Aéronautique d'un coup d'oeil ! - Copyright ORBIFLY Décembre 2007 - Disclaimer

ORBIFLY MET'MAP TEAM :

Programmation & Développement : Alexandra Zaïnal
Conception & Développement : Baudouin d'Aumeries
Co-Programmation & Développement : Marc-Olivier Méhu
Soutien technique & logistique : Manuel Goepfert

Contact : metmap@orbifly.com




SOURCES & CREDITS :

   NOAA